This is the latest recevied weather packets stored in our database for station/object K7TSD. If no packets are shown the sender has not sent any weather packets the latest 10 day(s).
| Time | Temp. | Humidity | Pressure | Rain* | Wind** | Luminosity | Snow |
|---|---|---|---|---|---|---|---|
| 1777853667 | 17.22° C | 42% | 1007.9 hPa | 0 mm | - | 246 W/m² | - |
| 1777853364 | 17.78° C | 42% | 1008 hPa | 0 mm | - | 261 W/m² | - |
| 1777853061 | 17.78° C | 43% | 1008.1 hPa | 0 mm | - | 266 W/m² | - |
| 1777852758 | 17.78° C | 44% | 1008.4 hPa | 0 mm | - | 296 W/m² | - |
| 1777852456 | 17.78° C | 42% | 1008.5 hPa | 0 mm | - | 314 W/m² | - |
| 1777852154 | 17.78° C | 44% | 1008.4 hPa | 0 mm | - | 303 W/m² | - |
| 1777851851 | 17.22° C | 45% | 1008.6 hPa | 0 mm | - | 327 W/m² | - |
| 1777851549 | 17.22° C | 47% | 1008.4 hPa | 0 mm | - | 347 W/m² | - |
| 1777851245 | 17.22° C | 47% | 1008.4 hPa | 0 mm | - | 368 W/m² | - |
| 1777850941 | 17.22° C | 48% | 1008.6 hPa | 0 mm | - | 371 W/m² | - |
| 1777850638 | 17.78° C | 47% | 1008.6 hPa | 0 mm | - | 401 W/m² | - |
| 1777850336 | 17.78° C | 49% | 1008.5 hPa | 0 mm | - | 422 W/m² | - |
| 1777850033 | 17.78° C | 48% | 1008.6 hPa | 0 mm | - | 429 W/m² | - |
| 1777849729 | 17.78° C | 50% | 1008.6 hPa | 0 mm | - | 449 W/m² | - |
| 1777849426 | 17.22° C | 50% | 1008.7 hPa | 0 mm | - | 484 W/m² | - |
| 1777849124 | 17.78° C | 50% | 1008.7 hPa | 0 mm | - | 484 W/m² | - |
| 1777848819 | 17.22° C | 50% | 1008.8 hPa | 0 mm | - | 482 W/m² | - |
| 1777848516 | 17.78° C | 51% | 1009.1 hPa | 0 mm | - | 506 W/m² | - |
| 1777848213 | 17.22° C | 50% | 1008.9 hPa | 0 mm | - | 501 W/m² | - |
| 1777847911 | 17.78° C | 50% | 1009.1 hPa | 0 mm | - | 503 W/m² | - |
| 1777847609 | 17.22° C | 52% | 1008.9 hPa | 0 mm | - | 503 W/m² | - |
| 1777847304 | 17.22° C | 52% | 1008.9 hPa | 0 mm | - | 520 W/m² | - |
| 1777847003 | 17.22° C | 49% | 1008.9 hPa | 0 mm | - | 528 W/m² | - |
| 1777846700 | 17.78° C | 50% | 1009.1 hPa | 0 mm | - | 534 W/m² | - |
| 1777846399 | 17.78° C | 49% | 1009.1 hPa | 0 mm | - | 555 W/m² | - |
* Rain latest hour (hover to see other rain measurements)
** Current wind speed in m/s (hover to see current wind gust speed)